レモン彗星

P/2011 VJ5 ( Lemmon )

English version
Home page
Updated on March 7, 2012

---------------------------------------------------------------------

・ プロフィール

発見日 2011年11月3日
発見光度 20.2等
発見者 R. Kowalski (Mount Lemmon Survey)

・ 写真集

・ 軌道要素

Epoch 2011 Dec. 25.0 TT = JDT 2455920.5
T 2011 Dec. 8.70419 TT                                  MPC
q   1.5063993            (2000.0)            P               Q
n   0.15704646     Peri.  315.12741     -0.57565706     -0.81760268
a   3.4023889      Node   169.99762     +0.76831913     -0.54587668
e   0.5572525      Incl.    3.97278     +0.27982970     -0.18315161
P   6.28
From 43 observations 2011 Nov. 3-2012 Feb. 28, mean residual 0".5.

・ 光度変化

        m1 = 17.0 + 5 logΔ + 10.0 log r

---------------------------------------------------------------------

軌道要素はM.P.E.C. 2012-E18に掲載されたものです。
光度グラフはComet for Windowsで作成したものです。

---------------------------------------------------------------------

Copyright(C) Seiichi Yoshida (comet@aerith.net). All rights reserved.